| time (UTC) | temp C | wind direction | speed KPH | gust KPH | rain 1hr cm | rain 24hr cm | rain mn cm | humidity % | barometer mb |
| 20260507134538 | 12 | 271 | 0.0 | 3.2 | 0.00 | 0.84 | 0.58 | 77 | 1012.5 |
| 20260507133009 | 12 | 315 | 0.0 | 1.6 | 0.00 | 0.84 | 0.58 | 80 | 1012.3 |
| 20260507131548 | 12 | 72 | 0.0 | 3.2 | 0.00 | 0.84 | 0.58 | 80 | 1012.4 |
| 20260507130016 | 12 | 267 | 0.0 | 1.6 | 0.00 | 0.86 | 0.58 | 81 | 1012.3 |
| 20260507124536 | 12 | 327 | 0.0 | 3.2 | 0.00 | 0.86 | 0.58 | 78 | 1012.3 |
| 20260507123007 | 12 | 67 | 0.0 | 1.6 | 0.00 | 0.86 | 0.58 | 84 | 1012.2 |
| 20260507121545 | 12 | 263 | 0.0 | 3.2 | 0.00 | 0.86 | 0.58 | 87 | 1011.9 |
| 20260507120014 | 12 | 272 | 0.0 | 0.0 | 0.00 | 0.86 | 0.58 | 89 | 1011.7 |
| 20260507114553 | 11 | 274 | 0.0 | 1.6 | 0.00 | 0.86 | 0.58 | 91 | 1011.8 |
| 20260507113024 | 11 | 260 | 0.0 | 1.6 | 0.00 | 0.86 | 0.58 | 92 | 1011.5 |
| 20260507111547 | 11 | 227 | 0.0 | 0.0 | 0.03 | 0.86 | 0.58 | 92 | 1011.6 |
| 20260507110104 | 11 | 228 | 0.0 | 1.6 | 0.03 | 0.86 | 0.58 | 93 | 1011.3 |
| 20260507104536 | 11 | 303 | 0.0 | 1.6 | 0.05 | 0.86 | 0.58 | 92 | 1011.6 |
| 20260507103050 | 11 | 303 | 0.0 | 0.0 | 0.05 | 0.86 | 0.58 | 91 | 1011.4 |
| 20260507101524 | 11 | 295 | 0.0 | 0.0 | 0.03 | 0.84 | 0.56 | 91 | 1011.0 |
| 20260507100050 | 11 | 295 | 0.0 | 0.0 | 0.03 | 0.84 | 0.56 | 91 | 1011.1 |
| 20260507094521 | 11 | 295 | 0.0 | 0.0 | 0.00 | 0.81 | 0.53 | 92 | 1011.2 |
| 20260507093041 | 11 | 296 | 0.0 | 1.6 | 0.00 | 0.81 | 0.53 | 92 | 1011.1 |
| 20260507091528 | 11 | 274 | 0.0 | 1.6 | 0.00 | 0.81 | 0.53 | 92 | 1010.9 |
| 20260507090058 | 12 | 274 | 0.0 | 0.0 | 0.00 | 0.81 | 0.53 | 92 | 1010.8 |
| 20260507084556 | 12 | 274 | 0.0 | 1.6 | 0.00 | 0.81 | 0.53 | 91 | 1010.6 |
| 20260507083025 | 12 | 269 | 0.0 | 1.6 | 0.00 | 0.81 | 0.53 | 91 | 1010.7 |
| 20260507081550 | 12 | 44 | 0.0 | 1.6 | 0.00 | 0.81 | 0.53 | 92 | 1010.9 |
| 20260507080006 | 12 | 68 | 0.0 | 0.0 | 0.00 | 0.81 | 0.53 | 93 | 1010.6 |
| 20260507074539 | 12 | 65 | 0.0 | 1.6 | 0.00 | 0.81 | 0.53 | 93 | 1010.2 |
| 20260507073100 | 12 | 45 | 0.0 | 1.6 | 0.00 | 0.81 | 0.53 | 93 | 1010.1 |
| 20260507071518 | 12 | 315 | 0.0 | 1.6 | 0.00 | 0.81 | 0.53 | 93 | 1010.1 |
| 20260507070134 | 12 | 67 | 0.0 | 1.6 | 0.00 | 0.81 | 0.53 | 93 | 1010.2 |
| 20260507064509 | 12 | 101 | 0.0 | 3.2 | 0.00 | 0.81 | 0.53 | 93 | 1009.9 |
| 20260507063038 | 12 | 53 | 0.0 | 3.2 | 0.03 | 0.81 | 0.53 | 92 | 1010.1 |
| 20260507061552 | 13 | 7 | 0.0 | 8.0 | 0.05 | 0.81 | 0.53 | 92 | 1010.0 |
| 20260507060026 | 13 | 13 | 0.0 | 6.4 | 0.08 | 0.81 | 0.53 | 93 | 1009.4 |
| 20260507054554 | 13 | 338 | 0.0 | 3.2 | 0.08 | 0.81 | 0.53 | 93 | 1008.7 |
| 20260507053015 | 14 | 159 | 0.0 | 0.0 | 0.13 | 0.79 | 0.51 | 93 | 1009.2 |
| 20260507051543 | 14 | 159 | 0.0 | 1.6 | 0.43 | 0.76 | 0.48 | 92 | 1010.1 |
| 20260507044540 | 15 | 78 | 0.0 | 3.2 | 0.46 | 0.71 | 0.46 | 91 | 1009.7 |
| 20260507043056 | 16 | 333 | 1.6 | 8.0 | 0.41 | 0.69 | 0.41 | 89 | 1009.6 |
| 20260507041523 | 17 | 189 | 0.0 | 4.8 | 0.03 | 0.30 | 0.03 | 86 | 1009.7 |
| 20260507040052 | 17 | 123 | 0.0 | 0.0 | 0.00 | 0.28 | 0.00 | 84 | 1009.2 |
| 20260507034501 | 18 | 178 | 0.0 | 3.2 | 0.00 | 0.28 | 0.28 | 85 | 1009.1 |
| 20260507033031 | 18 | 302 | 0.0 | 1.6 | 0.00 | 0.28 | 0.28 | 87 | 1009.0 |
| 20260507031548 | 18 | 120 | 0.0 | 0.0 | 0.00 | 0.28 | 0.28 | 87 | 1008.9 |
| 20260507030016 | 17 | 120 | 0.0 | 0.0 | 0.00 | 0.28 | 0.28 | 88 | 1008.8 |
| 20260507024550 | 17 | 185 | 0.0 | 0.0 | 0.00 | 0.28 | 0.28 | 89 | 1009.0 |
| 20260507023019 | 17 | 185 | 0.0 | 0.0 | 0.00 | 0.28 | 0.28 | 89 | 1008.7 |
| 20260507021537 | 17 | 185 | 0.0 | 0.0 | 0.00 | 0.28 | 0.28 | 88 | 1008.2 |
| 20260507020005 | 17 | 186 | 0.0 | 0.0 | 0.00 | 0.28 | 0.28 | 88 | 1008.5 |
| 20260507014541 | 17 | 186 | 0.0 | 0.0 | 0.00 | 0.28 | 0.28 | 87 | 1008.5 |
| 20260507013054 | 18 | 185 | 0.0 | 0.0 | 0.00 | 0.28 | 0.28 | 86 | 1008.6 |
| 20260507011526 | 18 | 185 | 0.0 | 0.0 | 0.00 | 0.28 | 0.28 | 87 | 1008.8 |
| 20260507004501 | 18 | 185 | 0.0 | 0.0 | 0.00 | 0.28 | 0.28 | 84 | 1008.4 |
| 20260507003032 | 18 | 185 | 0.0 | 0.0 | 0.00 | 0.28 | 0.28 | 82 | 1008.2 |
| 20260507001552 | 19 | 185 | 0.0 | 1.6 | 0.00 | 0.28 | 0.28 | 81 | 1008.1 |
| 20260507000016 | 20 | 160 | 0.0 | 1.6 | 0.00 | 0.28 | 0.28 | 80 | 1008.1 |
| 20260506234549 | 20 | 168 | 0.0 | 0.0 | 0.00 | 0.28 | 0.28 | 78 | 1007.9 |
| 20260506233001 | 20 | 159 | 0.0 | 1.6 | 0.00 | 0.28 | 0.28 | 77 | 1007.7 |
| 20260506231533 | 20 | 201 | 0.0 | 3.2 | 0.00 | 0.28 | 0.28 | 76 | 1007.8 |
| 20260506230106 | 21 | 153 | 0.0 | 1.6 | 0.00 | 0.28 | 0.28 | 76 | 1007.7 |
| 20260506224518 | 21 | 207 | 0.0 | 3.2 | 0.00 | 0.28 | 0.28 | 76 | 1007.6 |
| 20260506223047 | 21 | 165 | 1.6 | 6.4 | 0.00 | 0.28 | 0.28 | 74 | 1007.6 |
| 20260506221511 | 21 | 175 | 0.0 | 6.4 | 0.00 | 0.28 | 0.28 | 74 | 1007.5 |
| 20260506220044 | 21 | 157 | 0.0 | 3.2 | 0.00 | 0.28 | 0.28 | 75 | 1007.5 |
| 20260506214557 | 21 | 190 | 0.0 | 6.4 | 0.00 | 0.28 | 0.28 | 74 | 1007.5 |
| 20260506213024 | 21 | 169 | 0.0 | 4.8 | 0.00 | 0.28 | 0.28 | 75 | 1007.8 |
| 20260506211557 | 21 | 147 | 1.6 | 6.4 | 0.00 | 0.28 | 0.28 | 75 | 1007.4 |
| 20260506210024 | 20 | 160 | 1.6 | 8.0 | 0.00 | 0.28 | 0.28 | 75 | 1007.6 |
| 20260506204541 | 20 | 41 | 1.6 | 4.8 | 0.00 | 0.28 | 0.28 | 75 | 1007.4 |
| 20260506203010 | 20 | 206 | 0.0 | 4.8 | 0.00 | 0.28 | 0.28 | 76 | 1007.3 |
| 20260506201600 | 20 | 198 | 1.6 | 9.7 | 0.00 | 0.28 | 0.28 | 77 | 1007.5 |
| 20260506200059 | 20 | 150 | 3.2 | 6.4 | 0.00 | 0.28 | 0.28 | 77 | 1007.2 |
| 20260506194522 | 19 | 127 | 1.6 | 6.4 | 0.00 | 0.28 | 0.28 | 80 | 1007.6 |
| 20260506193044 | 19 | 164 | 0.0 | 9.7 | 0.00 | 0.28 | 0.28 | 80 | 1007.8 |
| 20260506191510 | 19 | 117 | 1.6 | 8.0 | 0.00 | 0.28 | 0.28 | 79 | 1008.1 |
| 20260506190043 | 19 | 215 | 0.0 | 11.3 | 0.00 | 0.28 | 0.28 | 80 | 1008.3 |
| 20260506184516 | 19 | 200 | 0.0 | 4.8 | 0.00 | 0.28 | 0.28 | 79 | 1008.8 |
| 20260506183048 | 18 | 154 | 0.0 | 8.0 | 0.00 | 0.28 | 0.28 | 80 | 1008.4 |
| 20260506181518 | 18 | 159 | 0.0 | 6.4 | 0.00 | 0.28 | 0.28 | 80 | 1008.4 |
| 20260506180049 | 18 | 141 | 0.0 | 8.0 | 0.00 | 0.28 | 0.28 | 80 | 1008.4 |
| 20260506174519 | 18 | 117 | 0.0 | 4.8 | 0.00 | 0.28 | 0.28 | 81 | 1008.8 |
| 20260506173115 | 18 | 133 | 1.6 | 8.0 | 0.00 | 0.28 | 0.28 | 81 | 1008.8 |
| 20260506171535 | 18 | 149 | 0.0 | 9.7 | 0.00 | 0.28 | 0.28 | 82 | 1009.0 |
| 20260506170048 | 18 | 150 | 1.6 | 8.0 | 0.00 | 0.28 | 0.28 | 81 | 1009.0 |
| 20260506164517 | 18 | 218 | 1.6 | 9.7 | 0.00 | 0.28 | 0.28 | 82 | 1009.0 |
| 20260506163102 | 17 | 207 | 1.6 | 4.8 | 0.00 | 0.28 | 0.28 | 85 | 1009.2 |
| 20260506161521 | 17 | 135 | 1.6 | 6.4 | 0.00 | 0.28 | 0.28 | 88 | 1009.5 |
| 20260506160039 | 16 | 144 | 1.6 | 9.7 | 0.00 | 0.28 | 0.28 | 87 | 1009.5 |
| 20260506154511 | 16 | 198 | 1.6 | 6.4 | 0.03 | 0.28 | 0.28 | 88 | 1009.4 |
| 20260506153047 | 16 | 152 | 1.6 | 4.8 | 0.05 | 0.28 | 0.28 | 90 | 1009.5 |
| 20260506151515 | 16 | 181 | 0.0 | 4.8 | 0.15 | 0.28 | 0.28 | 91 | 1009.5 |
| 20260506150048 | 16 | 198 | 0.0 | 6.4 | 0.18 | 0.28 | 0.28 | 91 | 1009.5 |
| 20260506144604 | 15 | 179 | 0.0 | 3.2 | 0.15 | 0.25 | 0.25 | 91 | 1009.8 |
| 20260506143038 | 16 | 212 | 0.0 | 9.7 | 0.18 | 0.23 | 0.23 | 88 | 1010.1 |
| 20260506141511 | 16 | 181 | 0.0 | 3.2 | 0.10 | 0.13 | 0.13 | 88 | 1009.9 |
| 20260506140055 | 16 | 143 | 0.0 | 1.6 | 0.08 | 0.10 | 0.10 | 88 | 1009.8 |